Weather History for Shelbyville, IN

Change the Weather History Date:

Sunday, October 3, 2010

  Actual Average Record
Temperature  
Mean Temperature 51 °F 58 °F  
Max Temperature 59 °F 71 °F 84 °F (2002)
Min Temperature 42 °F 46 °F 28 °F (2004)
Degree Days  
Heating Degree Days 14 8  
Month to date heating degree days 36 22  
Since 1 July heating degree days 81 107  
Cooling Degree Days 0 1  
Month to date cooling degree days 0 3  
Year to date cooling degree days 1321 902  
Moisture  
Dew Point 37 °F    
Average Humidity 63    
Maximum Humidity 86    
Minimum Humidity 40    
Precipitation  
Precipitation 0.00 in 0.12 in 0.47 in (2006)
Month to date precipitation 0.31 0.36  
Year to date precipitation 33.02 33.81  
Sea Level Pressure  
Sea Level Pressure 30.23 in    
Wind  
Wind Speed 10 mph (North)    
Max Wind Speed 22 mph    
Max Gust Speed 26 mph    
Visibility 10 miles    
Events      
T = Trace of Precipitation, MM = Missing Value Source: NWS Daily Summary

Daily Weather History Graph

Daily Weather History Graph

Search for Another Location

Airport:

Trip Planner

Search our weather history database for the weather conditions in past years. The results will help you decide how hot, cold, wet, or windy it might be!

Date:

Astronomy

Oct. 03, 2010 Rise Set
Actual Time 7:41 AM EDT 7:22 PM EDT
Civil Twilight 7:14 AM EDT 7:49 PM EDT
Nautical Twilight 6:43 AM EDT 8:20 PM EDT
Astronomical Twilight 6:11 AM EDT 8:51 PM EDT
Moon 2:37 AM EDT (10/3) 4:45 PM EDT (10/3)
Length of Visible Light 12h 34m
Length of Day
11h 41m
Waning Crescent, 23% of the Moon is Illuminated
Oct 3
Waning Crescent
Oct 7
New
Oct 14
First Quarter
Oct 22
Full
Oct 30
Last Quarter

Hourly Weather History & Observations

Time (EDT) Temp. Windchill Dew Point Humidity Pressure Visibility Wind Dir Wind Speed Gust Speed Precip Events Conditions
12:53 AM 48.9 °F - 42.1 °F 77% 30.14 in 10.0 mi NNE 13.8 mph - N/A   Overcast
1:53 AM 48.0 °F - 42.1 °F 80% 30.15 in 10.0 mi North 11.5 mph 19.6 mph N/A   Overcast
2:53 AM 46.9 °F - 42.1 °F 83% 30.16 in 10.0 mi North 9.2 mph - N/A   Overcast
3:53 AM 46.9 °F - 42.1 °F 83% 30.17 in 10.0 mi North 10.4 mph - N/A   Overcast
4:53 AM 46.9 °F - 39.9 °F 77% 30.17 in 10.0 mi NNE 10.4 mph - N/A   Overcast
5:15 AM 46.4 °F 41.9 °F 39.2 °F 76% 30.17 in 10.0 mi North 9.2 mph - N/A   Overcast
5:53 AM 45.0 °F 41.2 °F 39.9 °F 82% 30.19 in 10.0 mi NNW 6.9 mph - N/A   Overcast
6:53 AM 45.0 °F 40.6 °F 39.9 °F 82% 30.20 in 10.0 mi North 8.1 mph - N/A   Overcast
7:53 AM 43.0 °F 37.7 °F 37.9 °F 82% 30.22 in 10.0 mi North 9.2 mph - N/A   Mostly Cloudy
8:53 AM 43.0 °F 36.8 °F 37.9 °F 82% 30.24 in 10.0 mi North 11.5 mph - N/A   Clear
9:53 AM 46.0 °F 39.6 °F 37.9 °F 73% 30.26 in 10.0 mi North 15.0 mph - N/A   Clear
10:53 AM 50.0 °F - 39.0 °F 66% 30.27 in 10.0 mi North 15.0 mph - N/A   Clear
11:53 AM 53.1 °F - 37.9 °F 57% 30.27 in 10.0 mi North 13.8 mph 21.9 mph N/A   Scattered Clouds
12:53 PM 55.0 °F - 36.0 °F 49% 30.26 in 10.0 mi North 15.0 mph 23.0 mph N/A   Overcast
1:53 PM 55.0 °F - 34.0 °F 45% 30.25 in 10.0 mi North 15.0 mph - N/A   Mostly Cloudy
2:53 PM 57.9 °F - 34.0 °F 41% 30.23 in 10.0 mi NNE 17.3 mph 23.0 mph N/A   Mostly Cloudy
3:53 PM 55.9 °F - 34.0 °F 44% 30.24 in 10.0 mi North 16.1 mph 23.0 mph N/A   Overcast
4:53 PM 55.9 °F - 34.0 °F 44% 30.24 in 10.0 mi North 12.7 mph 23.0 mph N/A   Overcast
5:53 PM 55.0 °F - 34.0 °F 45% 30.25 in 10.0 mi NNE 12.7 mph - N/A   Overcast
6:53 PM 53.1 °F - 34.0 °F 48% 30.26 in 10.0 mi NNE 9.2 mph - N/A   Overcast
7:53 PM 51.1 °F - 34.0 °F 52% 30.27 in 10.0 mi North 4.6 mph - N/A   Mostly Cloudy
8:53 PM 45.0 °F 41.8 °F 35.1 °F 68% 30.28 in 10.0 mi North 5.8 mph - N/A   Mostly Cloudy
9:53 PM 48.0 °F - 37.0 °F 66% 30.29 in 10.0 mi North 6.9 mph - N/A   Overcast
10:53 PM 45.0 °F 42.6 °F 36.0 °F 71% 30.28 in 10.0 mi North 4.6 mph - N/A   Overcast
11:53 PM 45.0 °F 42.6 °F 37.0 °F 74% 30.28 in 10.0 mi North 4.6 mph - N/A   Overcast